Location: Lecco
(45.8566°N, 9.3977°E)
Time: 19:20:00
(UTC+02:00)

Envisat - Visible Passes

Search period start: 21 October 2019 00:00
Search period end: 30 October 2019 23:00
Orbit: 764 x 766 km, 98.1° (Epoch: 21 October)

Date Brightness Start Highest point End Pass type
(mag) Time Alt. Az. Time Alt. Az. Time Alt. Az.
21 Oct 3.1 18:54:41 10° SE 18:59:36 53° ENE 19:04:33 10° N visible
21 Oct 5.5 20:35:07 10° SW 20:38:56 21° W 20:42:46 10° NW visible
22 Oct 6.2 07:02:27 10° NE 07:05:23 15° E 07:08:18 10° SE visible
22 Oct 4.2 19:57:03 10° S 20:01:53 44° W 20:06:45 10° NNW visible
23 Oct 3.0 19:19:57 10° SSE 19:25:02 88° E 19:30:09 10° NNW visible
23 Oct 6.1 21:02:45 10° WSW 21:04:46 12° W 21:06:46 10° WNW visible
24 Oct 3.4 18:43:37 10° SE 18:48:23 43° ENE 18:53:10 10° N visible
24 Oct 5.2 20:23:21 10° SSW 20:27:34 26° W 20:31:49 10° NW visible
25 Oct 6.5 06:52:04 10° ENE 06:53:58 12° E 06:55:52 10° ESE visible
25 Oct 3.8 19:45:36 10° S 19:50:34 55° W 19:55:35 10° NNW visible
26 Oct 2.9 19:08:44 10° SSE 19:13:47 72° ENE 19:18:52 10° N visible
26 Oct 5.9 20:50:22 10° SW 20:53:20 16° W 20:56:20 10° NW visible
27 Oct 6.0 06:16:00 10° NE 06:19:48 21° E 06:23:34 10° SE visible
27 Oct 4.8 19:11:41 10° SSW 19:16:12 32° W 19:20:46 10° NNW visible
28 Oct 3.3 18:34:14 10° S 18:39:17 69° WSW 18:44:22 10° NNW visible
29 Oct 3.1 17:57:35 10° SSE 18:02:33 58° ENE 18:07:32 10° N visible
29 Oct 5.6 19:38:20 10° SW 19:41:57 19° W 19:45:35 10° NW visible
30 Oct 6.1 06:05:12 10° NE 06:08:24 17° E 06:11:36 10° SE visible
30 Oct 4.4 19:00:07 10° SSW 19:04:53 40° W 19:09:40 10° NNW visible
